| time (UTC) | temp F | wind direction | speed knots | gust knots | rain 1hr in | rain 24hr in | rain mn in | humidity % | barometer mb |
| 20260508054547 | 63 | 264 | 5.2 | 8.7 | 0.00 | 0.00 | 0.00 | 19 | 1018.7 |
| 20260508054047 | 64 | 262 | 7.0 | 13.0 | 0.00 | 0.00 | 0.00 | 19 | 1018.8 |
| 20260508053547 | 64 | 256 | 6.1 | 9.6 | 0.00 | 0.00 | 0.00 | 19 | 1018.7 |
| 20260508053046 | 64 | 233 | 10.4 | 13.0 | 0.00 | 0.00 | 0.00 | 19 | 1018.9 |
| 20260508052547 | 64 | 261 | 7.0 | 10.4 | 0.00 | 0.00 | 0.00 | 19 | 1019.0 |
| 20260508052009 | 64 | 238 | 8.7 | 13.0 | 0.00 | 0.00 | 0.00 | 19 | 1018.9 |
| 20260508051547 | 64 | 266 | 9.6 | 12.2 | 0.00 | 0.00 | 0.00 | 19 | 1018.9 |
| 20260508051047 | 64 | 249 | 9.6 | 9.6 | 0.00 | 0.00 | 0.00 | 20 | 1018.9 |
| 20260508050509 | 64 | 283 | 5.2 | 8.7 | 0.00 | 0.00 | 0.00 | 20 | 1018.9 |
| 20260508050009 | 64 | 267 | 5.2 | 9.6 | 0.00 | 0.00 | 0.00 | 20 | 1019.0 |
| 20260508045547 | 65 | 265 | 6.1 | 10.4 | 0.00 | 0.00 | 0.00 | 20 | 1018.7 |
| 20260508045047 | 65 | 259 | 7.8 | 13.0 | 0.00 | 0.00 | 0.00 | 20 | 1018.9 |
| 20260508044547 | 65 | 208 | 7.8 | 13.0 | 0.00 | 0.00 | 0.00 | 20 | 1018.8 |
| 20260508044047 | 65 | 225 | 7.0 | 10.4 | 0.00 | 0.00 | 0.00 | 20 | 1018.7 |
| 20260508043547 | 65 | 275 | 10.4 | 13.0 | 0.00 | 0.00 | 0.00 | 20 | 1018.8 |
| 20260508043009 | 65 | 243 | 7.0 | 13.0 | 0.00 | 0.00 | 0.00 | 21 | 1018.8 |
| 20260508042547 | 65 | 240 | 5.2 | 13.0 | 0.00 | 0.00 | 0.00 | 21 | 1018.9 |
| 20260508042047 | 65 | 241 | 6.1 | 13.9 | 0.00 | 0.00 | 0.00 | 21 | 1018.9 |
| 20260508041510 | 65 | 243 | 10.4 | 12.2 | 0.00 | 0.00 | 0.00 | 21 | 1018.7 |
| 20260508041009 | 64 | 250 | 5.2 | 10.4 | 0.00 | 0.00 | 0.00 | 22 | 1018.8 |
| 20260508040546 | 65 | 246 | 7.8 | 12.2 | 0.00 | 0.00 | 0.00 | 21 | 1018.6 |
| 20260508040009 | 65 | 243 | 11.3 | 13.9 | 0.00 | 0.00 | 0.00 | 22 | 1018.8 |
| 20260508032509 | 65 | 255 | 3.5 | 10.4 | 0.00 | 0.00 | 0.00 | 22 | 1018.2 |
| 20260508032009 | 65 | 277 | 7.8 | 10.4 | 0.00 | 0.00 | 0.00 | 22 | 1018.2 |
| 20260508031547 | 65 | 266 | 5.2 | 8.7 | 0.00 | 0.00 | 0.00 | 22 | 1018.3 |
| 20260508031009 | 66 | 249 | 4.3 | 7.8 | 0.00 | 0.00 | 0.00 | 22 | 1018.1 |
| 20260508030547 | 66 | 245 | 7.8 | 8.7 | 0.00 | 0.00 | 0.00 | 22 | 1018.2 |
| 20260508030047 | 66 | 248 | 5.2 | 9.6 | 0.00 | 0.00 | 0.00 | 21 | 1018.0 |
| 20260508025546 | 66 | 237 | 8.7 | 9.6 | 0.00 | 0.00 | 0.00 | 21 | 1018.0 |
| 20260508025027 | 66 | 255 | 6.1 | 8.7 | 0.00 | 0.00 | 0.00 | 21 | 1018.1 |
| 20260508024547 | 67 | 249 | 6.1 | 9.6 | 0.00 | 0.00 | 0.00 | 21 | 1017.9 |
| 20260508024047 | 67 | 252 | 8.7 | 13.0 | 0.00 | 0.00 | 0.00 | 20 | 1017.9 |
| 20260508023547 | 68 | 264 | 4.3 | 10.4 | 0.00 | 0.00 | 0.00 | 20 | 1017.9 |
| 20260508023009 | 68 | 276 | 9.6 | 15.6 | 0.00 | 0.00 | 0.00 | 20 | 1017.7 |
| 20260508022546 | 68 | 258 | 13.9 | 14.8 | 0.00 | 0.00 | 0.00 | 20 | 1017.7 |
| 20260508022048 | 68 | 265 | 7.8 | 13.9 | 0.00 | 0.00 | 0.00 | 20 | 1017.6 |
| 20260508021546 | 69 | 254 | 6.1 | 12.2 | 0.00 | 0.00 | 0.00 | 20 | 1017.7 |
| 20260508021046 | 69 | 264 | 4.3 | 13.0 | 0.00 | 0.00 | 0.00 | 19 | 1017.7 |
| 20260508020546 | 70 | 272 | 6.1 | 8.7 | 0.00 | 0.00 | 0.00 | 19 | 1017.6 |
| 20260508020009 | 70 | 257 | 8.7 | 8.7 | 0.00 | 0.00 | 0.00 | 19 | 1017.4 |
| 20260508015547 | 71 | 266 | 4.3 | 14.8 | 0.00 | 0.00 | 0.00 | 18 | 1017.6 |
| 20260508015047 | 72 | 264 | 4.3 | 6.1 | 0.00 | 0.00 | 0.00 | 18 | 1017.3 |
| 20260508013008 | 73 | 267 | 6.1 | 7.8 | 0.00 | 0.00 | 0.00 | 18 | 1017.3 |
| 20260508012547 | 74 | 281 | 4.3 | 11.3 | 0.00 | 0.00 | 0.00 | 18 | 1017.4 |
| 20260508012047 | 74 | 269 | 7.8 | 9.6 | 0.00 | 0.00 | 0.00 | 17 | 1017.2 |
| 20260508011547 | 74 | 260 | 7.8 | 8.7 | 0.00 | 0.00 | 0.00 | 16 | 1017.2 |
| 20260508011009 | 74 | 241 | 8.7 | 9.6 | 0.00 | 0.00 | 0.00 | 16 | 1017.3 |
| 20260508010546 | 75 | 292 | 5.2 | 10.4 | 0.00 | 0.00 | 0.00 | 16 | 1017.2 |
| 20260508010046 | 75 | 327 | 7.0 | 7.8 | 0.00 | 0.00 | 0.00 | 16 | 1017.2 |
| 20260508005547 | 75 | 296 | 6.1 | 7.0 | 0.00 | 0.00 | 0.00 | 15 | 1017.2 |
| 20260508005009 | 75 | 61 | 4.3 | 7.8 | 0.00 | 0.00 | 0.00 | 11 | 1016.8 |
| 20260508004546 | 77 | 17 | 4.3 | 6.1 | 0.00 | 0.00 | 0.00 | 11 | 1017.1 |
| 20260508004047 | 77 | 34 | 2.6 | 6.1 | 0.00 | 0.00 | 0.00 | 11 | 1017.1 |
| 20260508003546 | 77 | 249 | 1.7 | 3.5 | 0.00 | 0.00 | 0.00 | 11 | 1017.3 |
| 20260508003046 | 76 | 44 | 0.0 | 5.2 | 0.00 | 0.00 | 0.00 | 11 | 1017.1 |
| 20260508002547 | 76 | 31 | 3.5 | 5.2 | 0.00 | 0.00 | 0.00 | 11 | 1017.1 |
| 20260508002009 | 76 | 54 | 6.1 | 9.6 | 0.00 | 0.00 | 0.00 | 10 | 1017.1 |
| 20260508001547 | 77 | 6 | 7.0 | 10.4 | 0.00 | 0.00 | 0.00 | 11 | 1017.2 |
| 20260508001047 | 76 | 359 | 2.6 | 5.2 | 0.00 | 0.00 | 0.00 | 11 | 1017.3 |
| 20260508000509 | 76 | 320 | 1.7 | 5.2 | 0.00 | 0.00 | 0.00 | 11 | 1017.3 |
| 20260508000009 | 77 | 260 | 8.7 | 10.4 | 0.00 | 0.00 | 0.00 | 10 | 1017.3 |
| 20260507235547 | 79 | 286 | 3.5 | 4.3 | 0.00 | 0.00 | 0.00 | 10 | 1017.3 |
| 20260507235047 | 79 | 283 | 1.7 | 3.5 | 0.00 | 0.00 | 0.00 | 10 | 1017.4 |
| 20260507234547 | 77 | 251 | 5.2 | 7.0 | 0.00 | 0.00 | 0.00 | 10 | 1017.4 |
| 20260507234047 | 79 | 300 | 11.3 | 11.3 | 0.00 | 0.00 | 0.00 | 10 | 1017.4 |
| 20260507233547 | 75 | 28 | 2.6 | 8.7 | 0.00 | 0.00 | 0.00 | 11 | 1017.5 |
| 20260507233009 | 76 | 306 | 11.3 | 13.0 | 0.00 | 0.00 | 0.00 | 11 | 1017.4 |
| 20260507232547 | 77 | 34 | 3.5 | 7.8 | 0.00 | 0.00 | 0.00 | 11 | 1017.6 |
| 20260507232046 | 77 | 31 | 1.7 | 7.0 | 0.00 | 0.00 | 0.00 | 12 | 1017.5 |
| 20260507231510 | 77 | 21 | 4.3 | 11.3 | 0.00 | 0.00 | 0.00 | 12 | 1017.4 |
| 20260507231009 | 78 | 320 | 4.3 | 4.3 | 0.00 | 0.00 | 0.00 | 11 | 1017.4 |
| 20260507230547 | 78 | 100 | 3.5 | 4.3 | 0.00 | 0.00 | 0.00 | 10 | 1017.4 |
| 20260507230010 | 75 | 305 | 8.7 | 13.0 | 0.00 | 0.00 | 0.00 | 11 | 1017.6 |
| 20260507225547 | 77 | 325 | 4.3 | 9.6 | 0.00 | 0.00 | 0.00 | 12 | 1017.5 |
| 20260507225047 | 77 | 335 | 6.1 | 6.1 | 0.00 | 0.00 | 0.00 | 11 | 1017.5 |
| 20260507224547 | 75 | 304 | 9.6 | 11.3 | 0.00 | 0.00 | 0.00 | 12 | 1017.7 |
| 20260507222509 | 76 | 289 | 1.7 | 5.2 | 0.00 | 0.00 | 0.00 | 12 | 1017.8 |
| 20260507222009 | 76 | 103 | 2.6 | 5.2 | 0.00 | 0.00 | 0.00 | 11 | 1017.7 |
| 20260507221547 | 77 | 113 | 1.7 | 7.8 | 0.00 | 0.00 | 0.00 | 12 | 1017.8 |
| 20260507221010 | 75 | 66 | 7.8 | 11.3 | 0.00 | 0.00 | 0.00 | 11 | 1017.9 |
| 20260507220547 | 75 | 75 | 5.2 | 5.2 | 0.00 | 0.00 | 0.00 | 11 | 1017.9 |
| 20260507220047 | 76 | 102 | 2.6 | 8.7 | 0.00 | 0.00 | 0.00 | 12 | 1018.0 |
| 20260507215546 | 76 | 69 | 11.3 | 12.2 | 0.00 | 0.00 | 0.00 | 11 | 1018.0 |
| 20260507215010 | 77 | 52 | 9.6 | 9.6 | 0.00 | 0.00 | 0.00 | 11 | 1017.9 |
| 20260507214546 | 77 | 89 | 3.5 | 9.6 | 0.00 | 0.00 | 0.00 | 10 | 1018.0 |
| 20260507214047 | 76 | 65 | 10.4 | 11.3 | 0.00 | 0.00 | 0.00 | 10 | 1018.1 |
| 20260507213546 | 75 | 46 | 2.6 | 7.0 | 0.00 | 0.00 | 0.00 | 11 | 1018.2 |
| 20260507211547 | 75 | 60 | 7.0 | 12.2 | 0.00 | 0.00 | 0.00 | 11 | 1018.4 |
| 20260507211047 | 76 | 344 | 4.3 | 10.4 | 0.00 | 0.00 | 0.00 | 11 | 1018.6 |
| 20260507210547 | 76 | 334 | 2.6 | 3.5 | 0.00 | 0.00 | 0.00 | 10 | 1018.6 |
| 20260507204009 | 74 | 14 | 2.6 | 7.8 | 0.00 | 0.00 | 0.00 | 13 | 1018.8 |
| 20260507203547 | 74 | 276 | 2.6 | 4.3 | 0.00 | 0.00 | 0.00 | 12 | 1018.8 |
| 20260507203009 | 74 | 176 | 2.6 | 5.2 | 0.00 | 0.00 | 0.00 | 14 | 1019.0 |
| 20260507202547 | 72 | 258 | 4.3 | 11.3 | 0.00 | 0.00 | 0.00 | 14 | 1019.0 |
| 20260507202047 | 72 | 292 | 5.2 | 8.7 | 0.00 | 0.00 | 0.00 | 14 | 1019.0 |
| 20260507201547 | 73 | 356 | 2.6 | 8.7 | 0.00 | 0.00 | 0.00 | 10 | 1019.2 |
| 20260507201047 | 73 | 321 | 2.6 | 5.2 | 0.00 | 0.00 | 0.00 | 14 | 1019.2 |
| 20260507200547 | 73 | 37 | 6.1 | 9.6 | 0.00 | 0.00 | 0.00 | 14 | 1019.2 |
| 20260507200047 | 71 | 327 | 7.0 | 11.3 | 0.00 | 0.00 | 0.00 | 14 | 1019.2 |
| 20260507195509 | 74 | 309 | 7.0 | 11.3 | 0.00 | 0.00 | 0.00 | 15 | 1019.5 |
| 20260507195009 | 73 | 291 | 4.3 | 4.3 | 0.00 | 0.00 | 0.00 | 15 | 1019.5 |
| 20260507194547 | 72 | 314 | 8.7 | 10.4 | 0.00 | 0.00 | 0.00 | 15 | 1019.6 |
| 20260507194047 | 73 | 338 | 5.2 | 13.0 | 0.00 | 0.00 | 0.00 | 14 | 1019.5 |
| 20260507193546 | 73 | 75 | 5.2 | 5.2 | 0.00 | 0.00 | 0.00 | 16 | 1019.5 |
| 20260507193046 | 72 | 318 | 7.0 | 9.6 | 0.00 | 0.00 | 0.00 | 17 | 1019.7 |
| 20260507192547 | 72 | 50 | 5.2 | 7.8 | 0.00 | 0.00 | 0.00 | 15 | 1019.8 |
| 20260507192008 | 72 | 354 | 2.6 | 7.8 | 0.00 | 0.00 | 0.00 | 16 | 1019.9 |
| 20260507191546 | 73 | 322 | 6.1 | 11.3 | 0.00 | 0.00 | 0.00 | 16 | 1020.0 |
| 20260507191047 | 71 | 35 | 4.3 | 6.1 | 0.00 | 0.00 | 0.00 | 16 | 1019.7 |
| 20260507190508 | 72 | 8 | 2.6 | 9.6 | 0.00 | 0.00 | 0.00 | 16 | 1020.1 |
| 20260507190008 | 70 | 336 | 7.0 | 12.2 | 0.00 | 0.00 | 0.00 | 17 | 1019.9 |
| 20260507185547 | 71 | 300 | 6.1 | 13.0 | 0.00 | 0.00 | 0.00 | 18 | 1020.0 |
| 20260507185009 | 72 | 59 | 6.1 | 8.7 | 0.00 | 0.00 | 0.00 | 17 | 1020.0 |
| 20260507184546 | 70 | 42 | 1.7 | 7.8 | 0.00 | 0.00 | 0.00 | 18 | 1020.1 |
| 20260507184047 | 70 | 10 | 6.1 | 13.9 | 0.00 | 0.00 | 0.00 | 18 | 1020.1 |
| 20260507183547 | 71 | 122 | 3.5 | 7.0 | 0.00 | 0.00 | 0.00 | 20 | 1020.1 |
| 20260507183047 | 70 | 125 | 1.7 | 6.1 | 0.00 | 0.00 | 0.00 | 19 | 1020.2 |
| 20260507182547 | 69 | 329 | 2.6 | 5.2 | 0.00 | 0.00 | 0.00 | 20 | 1020.1 |
| 20260507181009 | 70 | 346 | 4.3 | 9.6 | 0.00 | 0.00 | 0.00 | 20 | 1020.2 |
| 20260507180547 | 70 | 293 | 3.5 | 7.8 | 0.00 | 0.00 | 0.00 | 21 | 1020.2 |
| 20260507180047 | 70 | 325 | 6.1 | 8.7 | 0.00 | 0.00 | 0.00 | 21 | 1020.2 |
| 20260507175547 | 70 | 47 | 4.3 | 9.6 | 0.00 | 0.00 | 0.00 | 21 | 1020.1 |
| 20260507175046 | 68 | 72 | 5.2 | 10.4 | 0.00 | 0.00 | 0.00 | 21 | 1020.2 |
| 20260507174547 | 68 | 31 | 7.0 | 11.3 | 0.00 | 0.00 | 0.00 | 21 | 1020.2 |
| 20260507174009 | 68 | 321 | 7.0 | 8.7 | 0.00 | 0.00 | 0.00 | 22 | 1020.4 |
| 20260507173546 | 68 | 168 | 0.0 | 5.2 | 0.00 | 0.00 | 0.00 | 22 | 1020.6 |
| 20260507173047 | 69 | 36 | 5.2 | 8.7 | 0.00 | 0.00 | 0.00 | 20 | 1020.5 |
| 20260507172509 | 67 | 2 | 4.3 | 5.2 | 0.00 | 0.00 | 0.00 | 22 | 1020.5 |
| 20260507172009 | 67 | 354 | 6.1 | 8.7 | 0.00 | 0.00 | 0.00 | 22 | 1020.4 |
| 20260507171547 | 67 | 71 | 5.2 | 7.0 | 0.00 | 0.00 | 0.00 | 22 | 1020.5 |
| 20260507165546 | 66 | 46 | 3.5 | 11.3 | 0.00 | 0.00 | 0.00 | 23 | 1020.5 |
| 20260507165009 | 66 | 63 | 1.7 | 5.2 | 0.00 | 0.00 | 0.00 | 23 | 1020.5 |
| 20260507164547 | 67 | 64 | 7.8 | 9.6 | 0.00 | 0.00 | 0.00 | 23 | 1020.4 |
| 20260507164047 | 66 | 10 | 6.1 | 7.8 | 0.00 | 0.00 | 0.00 | 22 | 1020.7 |
| 20260507163547 | 66 | 59 | 4.3 | 10.4 | 0.00 | 0.00 | 0.00 | 23 | 1020.5 |
| 20260507163010 | 66 | 40 | 2.6 | 7.8 | 0.00 | 0.00 | 0.00 | 23 | 1020.5 |
| 20260507162547 | 66 | 357 | 3.5 | 6.1 | 0.00 | 0.00 | 0.00 | 23 | 1020.7 |
| 20260507162047 | 67 | 41 | 2.6 | 3.5 | 0.00 | 0.00 | 0.00 | 23 | 1020.7 |
| 20260507161546 | 65 | 4 | 2.6 | 6.1 | 0.00 | 0.00 | 0.00 | 22 | 1020.8 |
| 20260507161046 | 64 | 75 | 1.7 | 9.6 | 0.00 | 0.00 | 0.00 | 23 | 1020.5 |
| 20260507160547 | 65 | 52 | 5.2 | 7.0 | 0.00 | 0.00 | 0.00 | 23 | 1020.7 |
| 20260507160009 | 66 | 71 | 5.2 | 6.1 | 0.00 | 0.00 | 0.00 | 22 | 1020.7 |
| 20260507155546 | 64 | 93 | 1.7 | 7.8 | 0.00 | 0.00 | 0.00 | 23 | 1020.8 |
| 20260507155047 | 64 | 86 | 2.6 | 6.1 | 0.00 | 0.00 | 0.00 | 23 | 1020.8 |
| 20260507154510 | 64 | 86 | 4.3 | 7.0 | 0.00 | 0.00 | 0.00 | 23 | 1020.9 |
| 20260507154010 | 64 | 109 | 6.1 | 8.7 | 0.00 | 0.00 | 0.00 | 23 | 1020.9 |
| 20260507153547 | 63 | 125 | 1.7 | 6.1 | 0.00 | 0.00 | 0.00 | 24 | 1020.9 |
| 20260507153009 | 64 | 30 | 7.8 | 8.7 | 0.00 | 0.00 | 0.00 | 23 | 1020.9 |
| 20260507152546 | 63 | 70 | 3.5 | 5.2 | 0.00 | 0.00 | 0.00 | 24 | 1020.8 |
| 20260507152046 | 62 | 84 | 4.3 | 7.8 | 0.00 | 0.00 | 0.00 | 24 | 1020.8 |
| 20260507151546 | 61 | 64 | 2.6 | 7.0 | 0.00 | 0.00 | 0.00 | 24 | 1020.7 |
| 20260507151009 | 61 | 100 | 6.1 | 9.6 | 0.00 | 0.00 | 0.00 | 24 | 1020.9 |
| 20260507150546 | 61 | 72 | 4.3 | 7.0 | 0.00 | 0.00 | 0.00 | 25 | 1020.8 |
| 20260507150046 | 60 | 66 | 5.2 | 9.6 | 0.00 | 0.00 | 0.00 | 25 | 1021.1 |
| 20260507145547 | 61 | 107 | 4.3 | 7.8 | 0.00 | 0.00 | 0.00 | 24 | 1020.9 |
| 20260507145009 | 60 | 53 | 2.6 | 7.8 | 0.00 | 0.00 | 0.00 | 25 | 1020.7 |
| 20260507144547 | 60 | 115 | 3.5 | 7.0 | 0.00 | 0.00 | 0.00 | 24 | 1021.1 |
| 20260507144047 | 61 | 77 | 3.5 | 5.2 | 0.00 | 0.00 | 0.00 | 25 | 1021.1 |
| 20260507143526 | 59 | 105 | 5.2 | 6.1 | 0.00 | 0.00 | 0.00 | 25 | 1021.0 |
| 20260507143046 | 60 | 89 | 2.6 | 3.5 | 0.00 | 0.00 | 0.00 | 26 | 1021.3 |
| 20260507142547 | 58 | 77 | 3.5 | 5.2 | 0.00 | 0.00 | 0.00 | 26 | 1020.8 |
| 20260507142010 | 58 | 96 | 4.3 | 7.8 | 0.00 | 0.00 | 0.00 | 26 | 1020.8 |
| 20260507141547 | 58 | 105 | 2.6 | 3.5 | 0.00 | 0.00 | 0.00 | 27 | 1020.8 |
| 20260507141047 | 58 | 112 | 3.5 | 5.2 | 0.00 | 0.00 | 0.00 | 26 | 1021.0 |
| 20260507140510 | 58 | 119 | 0.0 | 3.5 | 0.00 | 0.00 | 0.00 | 27 | 1020.9 |
| 20260507140047 | 58 | 114 | 3.5 | 4.3 | 0.00 | 0.00 | 0.00 | 26 | 1020.9 |
| 20260507135547 | 58 | 88 | 2.6 | 3.5 | 0.00 | 0.00 | 0.00 | 27 | 1020.8 |
| 20260507135009 | 58 | 65 | 1.7 | 4.3 | 0.00 | 0.00 | 0.00 | 28 | 1020.8 |
| 20260507134547 | 58 | 100 | 1.7 | 3.5 | 0.00 | 0.00 | 0.00 | 29 | 1020.8 |
| 20260507134047 | 56 | 124 | 2.6 | 3.5 | 0.00 | 0.00 | 0.00 | 31 | 1020.6 |
| 20260507131047 | 49 | 12 | 0.0 | 1.7 | 0.00 | 0.00 | 0.00 | 43 | 1020.5 |
| 20260507130547 | 49 | 261 | 2.6 | 3.5 | 0.00 | 0.00 | 0.00 | 46 | 1020.4 |
| 20260507130047 | 49 | 19 | 0.0 | 1.7 | 0.00 | 0.00 | 0.00 | 45 | 1020.5 |
| 20260507125547 | 48 | 293 | 1.7 | 2.6 | 0.00 | 0.00 | 0.00 | 49 | 1020.4 |
| 20260507125047 | 46 | 260 | 2.6 | 3.5 | 0.00 | 0.00 | 0.00 | 54 | 1020.4 |
| 20260507124547 | 46 | 260 | 1.7 | 2.6 | 0.00 | 0.00 | 0.00 | 54 | 1020.4 |
| 20260507124010 | 44 | 269 | 2.6 | 2.6 | 0.00 | 0.00 | 0.00 | 58 | 1020.5 |
| 20260507123547 | 42 | 258 | 1.7 | 4.3 | 0.00 | 0.00 | 0.00 | 61 | 1020.4 |
| 20260507123047 | 41 | 272 | 3.5 | 4.3 | 0.00 | 0.00 | 0.00 | 62 | 1020.3 |
| 20260507122509 | 42 | 180 | 1.7 | 3.5 | 0.00 | 0.00 | 0.00 | 61 | 1020.3 |
| 20260507122009 | 42 | 265 | 3.5 | 3.5 | 0.00 | 0.00 | 0.00 | 61 | 1020.2 |
| 20260507121547 | 43 | 259 | 3.5 | 4.3 | 0.00 | 0.00 | 0.00 | 60 | 1020.4 |
| 20260507121009 | 43 | 259 | 2.6 | 4.3 | 0.00 | 0.00 | 0.00 | 60 | 1020.5 |
| 20260507120546 | 43 | 265 | 2.6 | 3.5 | 0.00 | 0.00 | 0.00 | 60 | 1020.2 |
| 20260507120047 | 43 | 264 | 3.5 | 4.3 | 0.00 | 0.00 | 0.00 | 59 | 1020.4 |
| 20260507115547 | 43 | 262 | 2.6 | 3.5 | 0.00 | 0.00 | 0.00 | 59 | 1020.5 |
| 20260507115010 | 44 | 264 | 2.6 | 3.5 | 0.00 | 0.00 | 0.00 | 58 | 1020.4 |
| 20260507114547 | 44 | 266 | 4.3 | 4.3 | 0.00 | 0.00 | 0.00 | 58 | 1020.6 |
| 20260507114047 | 44 | 261 | 3.5 | 3.5 | 0.00 | 0.00 | 0.00 | 58 | 1020.6 |
| 20260507113547 | 43 | 260 | 4.3 | 4.3 | 0.00 | 0.00 | 0.00 | 59 | 1020.5 |
| 20260507113009 | 42 | 283 | 2.6 | 4.3 | 0.00 | 0.00 | 0.00 | 59 | 1020.5 |
| 20260507112547 | 43 | 276 | 2.6 | 4.3 | 0.00 | 0.00 | 0.00 | 59 | 1020.6 |
| 20260507112047 | 43 | 253 | 4.3 | 4.3 | 0.00 | 0.00 | 0.00 | 58 | 1020.7 |
| 20260507111547 | 44 | 251 | 4.3 | 5.2 | 0.00 | 0.00 | 0.00 | 57 | 1020.6 |
| 20260507111047 | 45 | 258 | 3.5 | 4.3 | 0.00 | 0.00 | 0.00 | 55 | 1020.5 |
| 20260507110547 | 45 | 263 | 3.5 | 5.2 | 0.00 | 0.00 | 0.00 | 56 | 1020.6 |
| 20260507110047 | 44 | 271 | 4.3 | 5.2 | 0.00 | 0.00 | 0.00 | 57 | 1020.6 |
| 20260507105547 | 44 | 260 | 3.5 | 4.3 | 0.00 | 0.00 | 0.00 | 57 | 1020.6 |
| 20260507105047 | 45 | 263 | 2.6 | 4.3 | 0.00 | 0.00 | 0.00 | 55 | 1020.5 |
| 20260507104509 | 45 | 269 | 3.5 | 4.3 | 0.00 | 0.00 | 0.00 | 55 | 1020.5 |
| 20260507104009 | 45 | 265 | 3.5 | 4.3 | 0.00 | 0.00 | 0.00 | 55 | 1020.5 |
| 20260507103547 | 44 | 271 | 3.5 | 4.3 | 0.00 | 0.00 | 0.00 | 56 | 1020.2 |
| 20260507103009 | 45 | 276 | 2.6 | 4.3 | 0.00 | 0.00 | 0.00 | 56 | 1020.4 |
| 20260507102547 | 45 | 266 | 3.5 | 3.5 | 0.00 | 0.00 | 0.00 | 55 | 1020.4 |
| 20260507102047 | 45 | 256 | 3.5 | 3.5 | 0.00 | 0.00 | 0.00 | 55 | 1020.3 |
| 20260507100046 | 44 | 272 | 2.6 | 4.3 | 0.00 | 0.00 | 0.00 | 57 | 1020.5 |
| 20260507095509 | 45 | 304 | 3.5 | 5.2 | 0.00 | 0.00 | 0.00 | 56 | 1020.4 |
| 20260507092009 | 46 | 325 | 2.6 | 4.3 | 0.00 | 0.00 | 0.00 | 54 | 1020.2 |
| 20260507091547 | 46 | 300 | 2.6 | 3.5 | 0.00 | 0.00 | 0.00 | 54 | 1020.4 |
| 20260507091047 | 46 | 318 | 2.6 | 4.3 | 0.00 | 0.00 | 0.00 | 53 | 1020.5 |
| 20260507090509 | 47 | 290 | 2.6 | 4.3 | 0.00 | 0.00 | 0.00 | 53 | 1020.3 |
| 20260507090009 | 47 | 266 | 5.2 | 5.2 | 0.00 | 0.00 | 0.00 | 53 | 1020.3 |
| 20260507085547 | 47 | 273 | 4.3 | 4.3 | 0.00 | 0.00 | 0.00 | 53 | 1020.2 |
| 20260507083546 | 49 | 240 | 1.7 | 1.7 | 0.00 | 0.00 | 0.00 | 50 | 1020.6 |
| 20260507083009 | 49 | 113 | 0.0 | 1.7 | 0.00 | 0.00 | 0.00 | 49 | 1020.2 |
| 20260507082547 | 50 | 112 | 2.6 | 2.6 | 0.00 | 0.00 | 0.00 | 47 | 1020.6 |
| 20260507082046 | 51 | 72 | 1.7 | 2.6 | 0.00 | 0.00 | 0.00 | 47 | 1020.5 |
| 20260507081510 | 52 | 232 | 1.7 | 2.6 | 0.00 | 0.00 | 0.00 | 45 | 1020.3 |
| 20260507081047 | 52 | 124 | 0.0 | 2.6 | 0.00 | 0.00 | 0.00 | 45 | 1020.4 |
| 20260507080546 | 52 | 326 | 0.0 | 2.6 | 0.00 | 0.00 | 0.00 | 45 | 1020.5 |
| 20260507080010 | 53 | 235 | 1.7 | 5.2 | 0.00 | 0.00 | 0.00 | 44 | 1020.3 |
| 20260507075547 | 53 | 250 | 5.2 | 7.8 | 0.00 | 0.00 | 0.00 | 43 | 1020.3 |
| 20260507075046 | 53 | 268 | 5.2 | 7.0 | 0.00 | 0.00 | 0.00 | 44 | 1020.2 |
| 20260507074547 | 52 | 275 | 5.2 | 5.2 | 0.00 | 0.00 | 0.00 | 45 | 1020.2 |
| 20260507074010 | 52 | 282 | 0.0 | 3.5 | 0.00 | 0.00 | 0.00 | 45 | 1020.2 |
| 20260507073546 | 50 | 276 | 2.6 | 2.6 | 0.00 | 0.00 | 0.00 | 47 | 1020.3 |
| 20260507073047 | 50 | 258 | 1.7 | 2.6 | 0.00 | 0.00 | 0.00 | 48 | 1020.3 |
| 20260507072547 | 50 | 37 | 3.5 | 3.5 | 0.00 | 0.00 | 0.00 | 48 | 1020.3 |
| 20260507072010 | 50 | 79 | 2.6 | 3.5 | 0.00 | 0.00 | 0.00 | 47 | 1020.4 |
| 20260507071547 | 51 | 121 | 2.6 | 2.6 | 0.00 | 0.00 | 0.00 | 47 | 1020.2 |
| 20260507071047 | 51 | 93 | 1.7 | 3.5 | 0.00 | 0.00 | 0.00 | 46 | 1020.3 |
| 20260507070513 | 52 | 107 | 1.7 | 2.6 | 0.00 | 0.00 | 0.00 | 45 | 1020.3 |
| 20260507070008 | 53 | 228 | 3.5 | 5.2 | 0.00 | 0.00 | 0.00 | 44 | 1020.2 |
| 20260507065547 | 53 | 213 | 1.7 | 5.2 | 0.00 | 0.00 | 0.00 | 43 | 1020.3 |
| 20260507065047 | 53 | 263 | 4.3 | 5.2 | 0.00 | 0.00 | 0.00 | 43 | 1020.3 |
| 20260507064546 | 54 | 255 | 4.3 | 7.8 | 0.00 | 0.00 | 0.00 | 43 | 1020.4 |
| 20260507064046 | 54 | 282 | 2.6 | 5.2 | 0.00 | 0.00 | 0.00 | 43 | 1020.4 |
| 20260507063547 | 53 | 280 | 4.3 | 4.3 | 0.00 | 0.00 | 0.00 | 43 | 1020.4 |
| 20260507063010 | 52 | 236 | 4.3 | 6.1 | 0.00 | 0.00 | 0.00 | 44 | 1020.3 |
| 20260507062547 | 52 | 137 | 2.6 | 3.5 | 0.00 | 0.00 | 0.00 | 44 | 1020.3 |
| 20260507062047 | 52 | 204 | 0.0 | 1.7 | 0.00 | 0.00 | 0.00 | 44 | 1020.2 |
| 20260507060046 | 54 | 194 | 2.6 | 7.0 | 0.00 | 0.00 | 0.00 | 41 | 1020.1 |
| 20260507055546 | 54 | 201 | 2.6 | 3.5 | 0.00 | 0.00 | 0.00 | 42 | 1020.1 |
| 20260507055047 | 54 | 170 | 2.6 | 4.3 | 0.00 | 0.00 | 0.00 | 42 | 1020.2 |